Volver al catálogo

ONEWEB-0405

ActivoComunicacionesPO
NORAD 50485·PAYLOAD·🇬🇧 United Kingdom

Lanzado Dec 27, 2021 desde Baikonur Cosmodrome

Loading…

Próximos Pases (próximas 24 horas)

TLE

ActualizadoSource: CelesTrak SupGP

Época: Sep 14, 2026, 16:33 UTC

1 50485C 21132S   26257.68973796 -.00001005  00000+0 -25523-2 0  2571
2 50485  87.9173 317.6642 0001499  98.0948  14.0825 13.18688880    11

Sigue ONEWEB-0405 en tiempo real con AllMySat

Download on the App Store